Flag for U.S.A. Weather past 2 weeks in Centennial, Colorado, U.S.A.

Now
28 °F

Passing clouds.


Feels Like: 21 °F
Forecast: 17 / 35 °F
Wind: 7 mph from Northwest

Location: Centennial Airport

Current Time: Mar 2, 2015 at 10:46:16 PM

Latest Report: Mar 2, 2015 at 9:53 PM


Visibility: 5 mi

Pressure: 29.69 "Hg

Humidity: 81%

Dew point: 23 °F

Location of CentennialLocation

Historic Weather in Centennial — Graph

°F

Centennial temperature yesterday

Maximum temperature yesterday: 25 °F (at 1:53 PM)
Minimum temperature yesterday: 8 °F (at 2:53 AM)
Average temperature yesterday: 19 °F

Past Weeks' High & Low Weather Summary

 TemperatureHumidityPressure
High60 °F (Feb 19, 2:53 PM)100% (Feb 15, 10:00 PM)30.61 "Hg (Feb 15, 10:00 PM)
Low-1 °F (Feb 28, 6:53 AM)21% (Feb 19, 3:53 PM)29.54 "Hg (Mar 2, 9:01 PM)
Average23 °F72%30.17 "Hg
* Reported Feb 15 10:00 PM — Mar 2 9:53 PM, Centennial, Weather by CustomWeather, © 2015

Note: Actual official high and low records may vary slightly from our data, if they occured in-between our weather recording intervals... More about our weather records

Advertising

Centennial weather history for previous 24 hours

 ConditionsComfort  
Time TempWeatherWind HumidityBarometerVisibility
9:53 PM
Mon, Mar 2
28 °FPassing clouds.7 mph81%29.69 "Hg5 mi
9:01 PM33 °FPassing clouds.9 mph72%29.54 "Hg5 mi
7:53 PM41 °FPassing clouds.16 mph60%29.59 "Hg10 mi
6:53 PM31 °FPassing clouds.No wind76%29.68 "Hg5 mi
5:53 PM34 °FPassing clouds.7 mph70%29.70 "Hg4 mi
4:53 PM38 °FPartly sunny.3 mph60%29.72 "Hg5 mi
3:53 PM40 °FPartly sunny.No wind53%29.74 "Hg5 mi
2:53 PM37 °FFog.3 mph60%29.78 "Hg4 mi
1:53 PM37 °FFog.6 mph54%29.80 "Hg4 mi
12:53 PM36 °FFog.7 mph54%29.85 "Hg5 mi
11:53 AM35 °FPassing clouds.No wind52%29.90 "Hg7 mi
10:53 AM28 °FIce fog.5 mph64%29.97 "Hg5 mi
9:53 AM24 °FIce fog.3 mph71%30.03 "Hg4 mi
8:53 AM19 °FIce fog.6 mph85%30.09 "Hg3 mi
7:53 AM18 °FIce fog.No wind92%30.11 "Hg3 mi
6:53 AM14 °FIce fog.3 mph87%30.15 "Hg3 mi
5:53 AM15 °FIce fog.3 mph87%30.17 "Hg4 mi
4:53 AM14 °FIce fog.3 mph87%30.19 "Hg4 mi
3:53 AM14 °FIce fog.5 mph87%30.20 "Hg4 mi
2:53 AM17 °FIce fog.No wind88%30.21 "Hg4 mi
1:53 AM16 °FIce fog.5 mph87%30.25 "Hg5 mi
12:53 AM16 °FIce fog.7 mph92%30.29 "Hg5 mi
11:53 PM
Sun, Mar 1
18 °FPassing clouds.7 mph80%30.30 "Hg8 mi
10:53 PM22 °FPartly cloudy.7 mph78%30.32 "Hg10 mi
Weather by CustomWeather, © 2015

See weather overviewHow to use our weather pages